Погода в Журавлёвском

Россия / Тюменская область     56°16′12″N   67°41′10″E
темп.,
°C
ветер,
м/с
пор.,
м/с
влажн.,
%
обл.,
%
осадки,
мм/ч
давл.,
гПа
погр.,
м
25 мая, ср
ср2523:00+17ююв336088 0.0 101234
02:00+15ююв485487 0.0 1013105
05:00+14ююв4862100 0.0 1013116
08:00+19ююв51257100 0.0 1013334
11:00+24ююв71241100 0.0 1013861
14:00+26ююв71039100 0.0 10131924
17:00+25ююв4842100 0.0 1012798
20:00+20вюв4964100 0.0 1011146
26 мая, чт
чт2623:00+18юв512655 0.0 1011221
02:00+18юв4126299 0.0 1011220
05:00+16юв51365100 0.0 1011221
08:00+21юв6125446 0.0 1010426
11:00+26юв79425 0.0 1009957
14:00+27юв89365 0.0 10081801
17:00+27вюв711426 0.0 10061316
20:00+22вюв8185497 0.0 1005561
27 мая, пт
пт2723:00+18св3473100 0.1 100365
02:00+17вюв367497 1.0 1002103
05:00+15вюв5108545 2.3 1001241
08:00+17ююв4477100 0.0 1001808
11:00+11зсз81295100 0.4 1004468
14:00+9зсз91490100 0.4 1008844
17:00+13зсз9137029 0.4 10111153
20:00+12зсз36775 0.0 1012219
28 мая, сб
сб2823:00+9з358323 0.0 101380
02:00+8з4108517 0.0 1014170
05:00+8з388719 0.0 1015160
08:00+14з466498 0.0 1015393
11:00+18з564831 0.0 10151583
14:00+19з564539 0.0 10151829
17:00+19зсз5647100 0.0 10161759
20:00+15з3471100 0.0 101746
29 мая, вс
вс2923:00+12з227921 0.0 101819
02:00+11зсз338078 0.0 101939
05:00+11з228098 0.0 101934
08:00+17зсз34630 0.0 1020355
11:00+20зсз33490 0.0 10201516
14:00+22сз34440 0.0 10201887
17:00+22сз344510 0.0 10201841
20:00+18зсз336858 0.0 102048